Miscellaneous Local Product
Issued by NWS North Platte, NE

Home | Current Version | Previous Version | Text Only | Print | Product List | Glossary On
Versions: 1 2 3 4 5 6 7 8 9 10 11 12 13 14 15 16 17 18 19 20 21 22 23 24 25 26 27 28 29 30 31 32 33 34 35 36 37 38 39 40 41 42 43 44 45 46 47 48 49 50
657
AXUS43 KLBF 232110
MISLBF


WESTERN AND NORTH CENTRAL NEBRASKA HOURLY WEATHER ROUNDUP
NATIONAL WEATHER SERVICE NORTH PLATTE NE
300 PM CST THU FEB 23 2017

NOTE: "FAIR" INDICATES FEW OR NO CLOUDS BELOW 12,000 FEET WITH NO
SIGNIFICANT WEATHER AND/OR OBSTRUCTIONS TO VISIBILITY.

NOTE: STATIONS NOT REPORTING VARIABLES SUCH AS SKY/WEATHER OR
PRESSURE ARE PROVIDED BY RAWS AND APRS NETWORKS AND ARE NOT UNDER
NATIONAL WEATHER SERVICE QUALITY CONTROL.

...OBSERVATIONS IN AND NEAR THE EASTERN PANHANDLE OF NEBRASKA...

CITY           SKY/WX    TMP DP  RH WIND       PRES   REMARKS
PINE RIDGE     LGT SNOW  26  23  88 NE16      29.78R VSB 3/4 WCI  14
CHADRON        SNOW      25  21  85 N17       29.79S VSB 1/2 WCI  12
ALLIANCE       FOG       22  19  89 N23G30    29.67S VSB 1/4 WCI   6
SIDNEY         LGT SNOW  23  20  88 N18       29.64R VSB 3/4 WCI   9
CRESCENT LAKE    N/A     22  20  92 NE16G29     N/A  WCI   8
$$

...OBSERVATIONS IN NORTHERN NEBRASKA AND FAR SOUTHERN SOUTH DAKOTA...

CITY           SKY/WX    TMP DP  RH WIND       PRES   REMARKS
WINNER         SNOW      30  27  88 N21       29.82F VSB 1/2 WCI  17
VALENTINE      SNOW      26  22  84 NE22G30   29.75F VSB 1/2 WCI  12
THEDFORD       LGT SNOW  28  25  89 NE22G33   29.63F WCI  13
AINSWORTH      SNOW      27  26  96 NE23G30   29.72S VSB 1/2 WCI  12
O`NEILL        CLOUDY    30  28  94 NE26G35   29.71F FOG     WCI  16
ORD            LGT SNOW  31  26  82 NE14G36   29.63S WCI  21
BROKEN BOW     SNOW      30  28  92 NE16G24   29.63S VSB 1/4 WCI  19
BUTTE            N/A     27  26  95 NE23        N/A  WCI  13
HALSEY           N/A     26  23  88 NE13G26     N/A  WCI  15
CHAMBERS         N/A     31  27  84 N7G15       N/A  WCI  24
EWING            N/A     31  29  92 NE15G26     N/A  WCI  20
$$

...OBSERVATIONS IN SOUTHWEST NEBRASKA AND FAR NORTHEAST COLORADO...

CITY           SKY/WX    TMP DP  RH WIND       PRES   REMARKS
HOLYOKE        LGT SNOW  30  28  93 NE9       29.61R VSB 3/4 WCI  22
IMPERIAL       FRZ RAIN  28  26  92 NE16      29.59R FOG     WCI  16
OGALLALA       LGT SNOW  28  25  87 NE14      29.63R WCI  17
NORTH PLATTE   LGT SNOW  30  25  81 NE12      29.63S WCI  20
MCCOOK         SNOW      31  31 100 NE13G25   29.57S VSB 1/2 WCI  21
LEXINGTON      CLOUDY    31  30  93 NE17      29.61S FOG     WCI  20
STAPLETON        N/A     26  23  89 NE12G20     N/A  WCI  16
GOTHENBURG       N/A     30  27  88 NE6         N/A  WCI  24
CALLAWAY         N/A     28  27  94 E12         N/A  WCI  18
$$

...OBSERVATIONS IN CENTRAL LINCOLN COUNTY AREA...

CITY           SKY/WX    TMP DP  RH WIND       PRES   REMARKS
N.P. AIRPORT   LGT SNOW  30  25  81 NE12      29.63S WCI  20
N.P. DOWNTOWN    N/A     28  25  89 NE12G20     N/A  WCI  18
N.P. SOUTHEAST   N/A     27  24  89 NE8G17      N/A  WCI  19
N.P. HILLCREST   N/A     28  25  89 E20         N/A  WCI  15
$$

...SOME OBSERVATIONS FROM AROUND THE REGION...

CITY           SKY/WX    TMP DP  RH WIND       PRES   REMARKS
LARAMIE        LGT SNOW  17  11  77 E13       29.55R WCI   4
CHEYENNE       HVY SNOW  19  14  81 N14G25    29.61R VSB 1/4 WCI   6
DENVER         LGT SNOW  30  26  85 NE14      29.56R FOG     WCI  19
AKRON          LGT SNOW  27  24  89 NE14      29.58R FOG     WCI  16
SCOTTSBLUFF    HAZE      23  18  81 N29       29.67F VSB 1/2 WCI   6
RAPID CITY     LGT SNOW  27  23  85 N14       29.87S VSB 1   WCI  16
BISMARCK       CLOUDY    32  26  78 N9        30.04S WCI  24
PIERRE         CLOUDY    30  23  75 NE18      29.92R WCI  18
SIOUX FALLS    LGT SNOW  30  29  96 NE17      29.84R VSB 3/4 WCI  18
OMAHA          CLOUDY    41  34  76 NE21G29   29.61F
GRAND ISLAND   CLOUDY    32  32 100 NE24G31   29.60R WCI  19
KANSAS CITY    CLOUDY    51  43  74 E15       29.47F
WICHITA        MOSUNNY   72  48  42 SE12      29.34F
OKLAHOMA CITY  MOSUNNY   87  38  17 SW17      29.39F
DALLAS         SUNNY     88  47  24 S23G31    29.47F
AMARILLO       SUNNY     78  14   9 SW30G40   29.45F
DODGE CITY     SUNNY     79  20  11 SW33G44   29.28F
HAYS           MOSUNNY   57  39  51 NE23      29.39F
GOODLAND       CLOUDY    31  31 100 NE15      29.53R WCI  20
$$




USA.gov is the U.S. government's official web portal to all federal, state and local government web resources and services.